TimePST,TemperatureF,Dew PointF,Humidity,Sea Level PressureIn,VisibilityMPH,Wind Direction,Wind SpeedMPH,Gust SpeedMPH,PrecipitationIn,Events,Conditions,WindDirDegrees,DateUTC
12:53 AM,34.0,28.0,79,29.98,10.0,Calm,Calm,-,N/A,,Partly Cloudy,0,2012-11-08 08:53:00
1:53 AM,32.0,28.9,88,29.96,10.0,Calm,Calm,-,N/A,,Clear,0,2012-11-08 09:53:00
2:53 AM,30.9,28.0,89,29.94,10.0,Calm,Calm,-,N/A,,Clear,0,2012-11-08 10:53:00
3:53 AM,30.0,25.0,82,29.93,10.0,Calm,Calm,-,N/A,,Clear,0,2012-11-08 11:53:00
4:31 AM,28.4,26.6,93,29.89,9.0,Calm,Calm,-,N/A,,Partly Cloudy,0,2012-11-08 12:31:00
4:53 AM,28.0,25.0,88,29.92,2.0,Calm,Calm,-,N/A,,Partly Cloudy,0,2012-11-08 12:53:00
5:04 AM,30.2,26.6,86,29.87,7.0,Calm,Calm,-,N/A,,Partly Cloudy,0,2012-11-08 13:04:00
5:53 AM,30.9,27.0,85,29.88,10.0,Calm,Calm,-,N/A,,Clear,0,2012-11-08 13:53:00
6:53 AM,28.9,25.0,85,29.86,10.0,Calm,Calm,-,N/A,,Clear,0,2012-11-08 14:53:00
7:53 AM,32.0,28.0,85,29.83,10.0,Calm,Calm,-,N/A,,Clear,0,2012-11-08 15:53:00
8:53 AM,36.0,30.0,79,29.80,10.0,SSW,3.5,-,N/A,,Clear,210,2012-11-08 16:53:00
9:53 AM,39.0,28.9,67,29.78,10.0,Calm,Calm,-,N/A,,Clear,0,2012-11-08 17:53:00
10:53 AM,41.0,30.0,65,29.75,10.0,West,3.5,-,N/A,,Clear,260,2012-11-08 18:53:00
11:53 AM,44.1,28.9,55,29.73,10.0,ENE,11.5,-,N/A,,Mostly Cloudy,70,2012-11-08 19:53:00
12:53 PM,45.0,26.1,48,29.71,10.0,NE,6.9,-,N/A,,Mostly Cloudy,50,2012-11-08 20:53:00
1:53 PM,45.0,26.1,48,29.71,10.0,Variable,3.5,-,N/A,,Mostly Cloudy,0,2012-11-08 21:53:00
2:53 PM,44.1,25.0,47,29.72,10.0,NE,9.2,-,N/A,,Overcast,50,2012-11-08 22:53:00
3:53 PM,39.0,32.0,76,29.75,7.0,East,8.1,18.4,0.00,Rain,Light Rain,80,2012-11-08 23:53:00
4:53 PM,37.0,33.1,86,29.75,6.0,Calm,Calm,-,0.02,Rain,Light Rain,0,2012-11-09 00:53:00
5:53 PM,36.0,32.0,86,29.75,7.0,Calm,Calm,-,0.02,Rain,Light Rain,0,2012-11-09 01:53:00
6:23 PM,35.6,32.0,87,29.71,8.0,Calm,Calm,-,0.01,Rain,Light Rain,0,2012-11-09 02:23:00
6:53 PM,35.1,30.9,85,29.75,3.0,North,4.6,-,0.03,Snow,Light Snow,10,2012-11-09 02:53:00
7:29 PM,33.8,30.2,87,29.71,3.0,Calm,Calm,-,0.03,Snow,Light Snow,0,2012-11-09 03:29:00
7:53 PM,34.0,30.9,89,29.75,3.0,Calm,Calm,-,0.05,Snow,Light Snow,0,2012-11-09 03:53:00
8:08 PM,33.8,30.2,87,29.71,2.5,Calm,Calm,-,0.00,Snow,Light Snow,0,2012-11-09 04:08:00
8:20 PM,33.8,30.2,87,29.72,3.0,Calm,Calm,-,0.01,Snow,Light Snow,0,2012-11-09 04:20:00
8:30 PM,33.8,30.2,87,29.72,2.5,Calm,Calm,-,0.01,Snow,Light Snow,0,2012-11-09 04:30:00
8:40 PM,33.8,30.2,87,29.72,2.0,Calm,Calm,-,0.01,Snow,Light Snow,0,2012-11-09 04:40:00
8:53 PM,34.0,30.9,89,29.75,3.0,Calm,Calm,-,0.02,Snow,Light Snow,0,2012-11-09 04:53:00
9:23 PM,33.8,30.2,87,29.72,4.0,Calm,Calm,-,0.00,Snow,Light Snow,0,2012-11-09 05:23:00
9:27 PM,33.8,30.2,87,29.72,2.5,Calm,Calm,-,0.00,Snow,Light Snow,0,2012-11-09 05:27:00
9:53 PM,34.0,30.9,89,29.75,2.0,Calm,Calm,-,0.01,Snow,Light Snow,0,2012-11-09 05:53:00
10:00 PM,33.8,30.2,87,29.72,1.5,Calm,Calm,-,0.00,Snow,Light Snow,0,2012-11-09 06:00:00
10:08 PM,33.8,30.2,87,29.72,1.5,SSE,3.5,-,0.00,Snow,Light Snow,150,2012-11-09 06:08:00
10:20 PM,33.8,30.2,87,29.72,1.8,SE,3.5,-,0.01,Snow,Light Snow,140,2012-11-09 06:20:00
10:27 PM,33.8,30.2,87,29.72,2.0,Calm,Calm,-,0.01,Snow,Light Snow,0,2012-11-09 06:27:00
10:39 PM,33.8,30.2,87,29.72,1.2,Calm,Calm,-,0.02,Snow,Light Snow,0,2012-11-09 06:39:00
10:53 PM,34.0,30.0,85,29.75,2.0,Calm,Calm,-,0.02,Snow,Light Snow,0,2012-11-09 06:53:00
11:06 PM,33.8,30.2,87,29.72,1.2,Calm,Calm,-,0.00,Snow,Light Snow,0,2012-11-09 07:06:00
11:53 PM,33.1,30.0,89,29.75,1.8,Calm,Calm,-,0.02,Snow,Light Snow,0,2012-11-09 07:53:00